Location: Coffee Creek Observatory
(38.8077°N, 94.7179°W)
Time: 13:48:26
(UTC-05:00)

Amateur Radio Satellites - All Passes

Search period start: 24 October 2014 13:18
Search period end: 25 October 2014 13:18
Location: Coffee Creek Observatory, 38.8077°N, 94.7179°W

Satellite Date Start Highest point End Downlink Frequencies (MHz)
Time Altitude Azimuth
KITSAT 1 24 Oct 13:32:38 13:40:38 65° 303° (WNW) 13:48:41 435.175 FM
Sapphire 24 Oct 13:42:59 13:48:23 62° 59° (ENE) 13:53:44 437.095 MHz 1200 baud AX-25 AFSK
Oscar 19 24 Oct 13:43:37 13:48:38 55° 73° (ENE) 13:53:39 437.125 CW, 437.150 USB
ISS 24 Oct 13:44:11 13:47:29 63° 323° (NW) 13:50:48 145.800 FM
AO-27 24 Oct 14:00:39 14:05:17 33° 68° (ENE) 14:09:56 436.795 MHz FM
PCSat 24 Oct 14:05:35 14:11:02 80° 244° (WSW) 14:16:25 145.825 MHz
AO-Echo 24 Oct 14:27:52 14:32:42 75° 75° (ENE) 14:37:44 ?
Oscar 16 24 Oct 14:29:19 14:34:21 52° 260° (W) 14:39:24 437.025 USB, Beacon 2401.1428
AO-7 24 Oct 14:30:43 14:34:32 14° 48° (NE) 14:38:20 29.400 - 29.500 MHz
UOSAT-12 24 Oct 14:32:29 14:36:24 28° 112° (ESE) 14:40:23 437.025 FM, 437.400 FM
SO-50 24 Oct 14:47:16 14:50:54 23° 313° (NW) 14:54:38 436.795 FM
Uribyol 2 24 Oct 14:47:51 14:53:05 84° 256° (WSW) 14:58:20 436.500 FM
ITAMSAT 1 24 Oct 14:53:48 14:59:00 79° 257° (WSW) 15:04:16 435.822 SSB
JAS-1B 24 Oct 15:02:02 15:07:39 39° 261° (W) 15:12:56 435.800 - 435.900 CW/SSB
Gurwin Techsat 1B 24 Oct 15:11:13 15:16:30 79° 75° (ENE) 15:21:50 435.225 FM
TMSAT-1 24 Oct 15:22:43 15:28:00 74° 75° (ENE) 15:33:18 436.925 FM
ISS 24 Oct 15:22:48 15:24:43 14° 342° (NNW) 15:26:37 145.800 FM
Oscar 19 24 Oct 15:25:07 15:28:17 16° 268° (W) 15:31:27 437.125 CW, 437.150 USB
Sapphire 24 Oct 15:27:53 15:31:14 17° 256° (WSW) 15:34:35 437.095 MHz 1200 baud AX-25 AFSK
KITSAT 1 24 Oct 15:32:39 15:37:45 18° 326° (NW) 15:42:51 435.175 FM
AO-27 24 Oct 15:40:21 15:44:46 28° 264° (W) 15:49:14 436.795 MHz FM
Saudisat 1A 24 Oct 16:05:47 16:09:01 19° 46° (NE) 16:12:14 436.775 MHz
AO-Echo 24 Oct 16:10:55 16:12:03 11° 271° (W) 16:13:12 ?
UOSAT-12 24 Oct 16:12:14 16:16:26 33° 309° (NW) 16:20:42 437.025 FM, 437.400 FM
Uosat F 24 Oct 16:12:58 16:17:24 32° 68° (ENE) 16:21:51 435.120 FM
AO-7 24 Oct 16:17:36 16:25:44 66° 68° (ENE) 16:33:55 29.400 - 29.500 MHz
Gurwin Techsat 1B 24 Oct 16:55:20 16:57:02 11° 271° (W) 16:58:45 435.225 FM
JAS-2 24 Oct 17:03:19 17:08:19 28° 63° (ENE) 17:13:50 435.800 - 435.900 CW/SSB, 435.910 FM
TMSAT-1 24 Oct 17:06:20 17:08:26 12° 270° (W) 17:10:33 436.925 FM
Hamsat 24 Oct 17:37:33 17:41:03 26° 70° (ENE) 17:44:33 145.90 MHz
Saudisat 1A 24 Oct 17:44:34 17:48:49 48° 243° (WSW) 17:53:03 436.775 MHz
Uosat F 24 Oct 17:51:56 17:56:09 27° 264° (W) 18:00:25 435.120 FM
OPAL 24 Oct 17:54:42 17:58:54 27° 98° (E) 18:03:05 ?
AO-7 24 Oct 18:12:29 18:19:01 26° 265° (W) 18:25:36 29.400 - 29.500 MHz
ISS 24 Oct 18:38:01 18:40:23 18° 23° (NNE) 18:42:45 145.800 FM
JAS-2 24 Oct 18:47:31 18:53:02 44° 264° (W) 18:59:18 435.800 - 435.900 CW/SSB, 435.910 FM
SO-67 24 Oct 19:02:10 19:05:02 25° 72° (ENE) 19:07:54 435.3500 MHz FM
Hamsat 24 Oct 19:13:32 19:16:56 23° 265° (W) 19:20:19 145.90 MHz
HO-68 24 Oct 19:21:06 19:22:40 11° 50° (NE) 19:24:14 435.675 MHz FM
OPAL 24 Oct 19:33:24 19:37:46 32° 294° (WNW) 19:42:05 ?
KITSAT 1 24 Oct 19:33:26 19:37:32 14° 29° (NNE) 19:41:38 435.175 FM
STRAND 1 24 Oct 19:38:20 19:43:05 36° 98° (E) 19:47:48 ?
AO-40 24 Oct 20:07:13 22:48:02 37° 200° (SSW) 03:56:41 Beacon 2401.320
ISS 24 Oct 20:14:05 20:17:26 79° 219° (SW) 20:20:45 145.800 FM
SO-67 24 Oct 20:35:52 20:38:00 16° 267° (W) 20:40:08 435.3500 MHz FM
RS-15 24 Oct 20:42:17 20:47:12 14° 97° (E) 20:52:03 29.354 - 29.394 USB, Beacon 29.352 USB
UKube-1 24 Oct 20:49:14 20:49:58 10° 62° (ENE) 20:50:41 145.840 MHz, 145.915 MHz
HO-68 24 Oct 21:01:55 21:08:54 60° 69° (ENE) 21:15:57 435.675 MHz FM
STRAND 1 24 Oct 21:17:53 21:22:04 26° 294° (WNW) 21:26:14 ?
KITSAT 1 24 Oct 21:27:17 21:35:07 51° 54° (NE) 21:42:54 435.175 FM
Oscar 11 24 Oct 21:27:47 21:31:16 24° 69° (ENE) 21:34:45 145.825 FM, Beacon 2401.500 USB
FUNcube-1 24 Oct 21:28:00 21:29:09 11° 63° (ENE) 21:30:18 145.950 - 145.970 MHz USB
SO-50 24 Oct 21:38:41 21:42:55 29° 50° (NE) 21:47:10 436.795 FM
ZACube-1 24 Oct 22:16:01 22:20:12 36° 71° (ENE) 22:24:21 437.345 MHz
UKube-1 24 Oct 22:21:11 22:25:31 73° 258° (WSW) 22:29:53 145.840 MHz, 145.915 MHz
RS-15 24 Oct 22:46:33 22:57:30 74° 116° (ESE) 23:08:22 29.354 - 29.394 USB, Beacon 29.352 USB
HO-68 24 Oct 22:51:27 22:57:00 24° 266° (W) 23:02:36 435.675 MHz FM
FUNcube-1 24 Oct 23:00:19 23:04:54 75° 258° (WSW) 23:09:27 145.950 - 145.970 MHz USB
UOSAT-12 24 Oct 23:03:14 23:06:45 20° 45° (NE) 23:10:13 437.025 FM, 437.400 FM
Oscar 11 24 Oct 23:03:38 23:07:19 27° 264° (W) 23:11:02 145.825 FM, Beacon 2401.500 USB
SO-50 24 Oct 23:19:06 23:23:30 35° 246° (WSW) 23:27:54 436.795 FM
KITSAT 1 24 Oct 23:23:07 23:30:13 36° 252° (WSW) 23:37:19 435.175 FM
MaSat-1 24 Oct 23:50:06 23:54:02 39° 111° (ESE) 23:57:39 437.345 MHz
ZACube-1 24 Oct 23:53:14 23:56:39 20° 266° (W) 00:00:03 437.345 MHz
UOSAT-12 25 Oct 00:42:37 00:47:12 52° 243° (WSW) 00:51:41 437.025 FM, 437.400 FM
RS-15 25 Oct 01:01:10 01:10:50 35° 320° (NW) 01:20:35 29.354 - 29.394 USB, Beacon 29.352 USB
Oscar 10/S400 25 Oct 01:14:40 02:20:22 25° 239° (WSW) 05:26:04 145.825 - 145.975 CW/USB, Beacon 145.810 USB
MaSat-1 25 Oct 01:27:08 01:29:45 17° 303° (WNW) 01:32:13 437.345 MHz
Oscar 19 25 Oct 01:57:19 02:01:10 21° 94° (E) 02:05:01 437.125 CW, 437.150 USB
AO-27 25 Oct 02:16:43 02:18:58 13° 90° (E) 02:21:13 436.795 MHz FM
AO-Echo 25 Oct 02:36:40 02:41:14 28° 95° (E) 02:45:45 ?
Oscar 16 25 Oct 02:42:11 02:47:16 61° 101° (E) 02:52:19 437.025 USB, Beacon 2401.1428
JAS-1B 25 Oct 02:44:31 02:51:13 57° 102° (ESE) 02:59:11 435.800 - 435.900 CW/SSB
Uribyol 2 25 Oct 03:02:13 03:07:05 39° 98° (E) 03:11:53 436.500 FM
PCSat 25 Oct 03:05:16 03:08:23 16° 104° (ESE) 03:11:31 145.825 MHz
ITAMSAT 1 25 Oct 03:08:14 03:13:11 41° 99° (E) 03:18:04 435.822 SSB
RS-15 25 Oct 03:21:34 03:28:01 17° 355° (N) 03:34:32 29.354 - 29.394 USB, Beacon 29.352 USB
Gurwin Techsat 1B 25 Oct 03:29:06 03:33:56 35° 97° (E) 03:38:44 435.225 FM
Oscar 19 25 Oct 03:35:52 03:40:39 42° 289° (WNW) 03:45:26 437.125 CW, 437.150 USB
TMSAT-1 25 Oct 03:40:17 03:45:02 33° 97° (E) 03:49:44 436.925 FM
AO-27 25 Oct 03:53:45 03:58:58 71° 286° (WNW) 04:04:09 436.795 MHz FM
AO-Echo 25 Oct 04:15:12 04:19:57 34° 291° (WNW) 04:24:42 ?
AO-7 25 Oct 04:21:49 04:27:57 22° 93° (E) 04:34:03 29.400 - 29.500 MHz
Oscar 16 25 Oct 04:23:04 04:26:05 16° 297° (WNW) 04:29:07 437.025 USB, Beacon 2401.1428
Sapphire 25 Oct 04:23:15 04:28:38 75° 116° (ESE) 04:34:04 437.095 MHz 1200 baud AX-25 AFSK
Uosat F 25 Oct 04:24:58 04:25:38 10° 90° (E) 04:26:19 435.120 FM
JAS-1B 25 Oct 04:36:09 04:41:33 27° 295° (WNW) 04:47:41 435.800 - 435.900 CW/SSB
Uribyol 2 25 Oct 04:42:09 04:46:19 25° 294° (WNW) 04:50:27 436.500 FM
PCSat 25 Oct 04:45:49 04:51:11 65° 300° (WNW) 04:56:36 145.825 MHz
ITAMSAT 1 25 Oct 04:48:19 04:52:23 23° 295° (WNW) 04:56:25 435.822 SSB
OPAL 25 Oct 05:08:03 05:12:56 45° 69° (ENE) 05:17:46 ?
Gurwin Techsat 1B 25 Oct 05:09:16 05:13:44 28° 293° (WNW) 05:18:11 435.225 FM
TMSAT-1 25 Oct 05:20:17 05:24:50 30° 292° (WNW) 05:29:21 436.925 FM
RS-15 25 Oct 05:37:10 05:46:03 26° 31° (NNE) 05:55:08 29.354 - 29.394 USB, Beacon 29.352 USB
JAS-2 25 Oct 05:57:11 06:04:10 34° 94° (E) 06:11:02 435.800 - 435.900 CW/SSB, 435.910 FM
Uosat F 25 Oct 05:59:55 06:04:59 81° 285° (WNW) 06:10:01 435.120 FM
Sapphire 25 Oct 06:09:07 06:12:39 17° 314° (NW) 06:16:13 437.095 MHz 1200 baud AX-25 AFSK
AO-7 25 Oct 06:13:05 06:21:23 74° 291° (WNW) 06:29:41 29.400 - 29.500 MHz
PCSat 25 Oct 06:34:02 06:35:41 11° 320° (NW) 06:37:19 145.825 MHz
OPAL 25 Oct 06:48:10 06:51:58 21° 264° (W) 06:55:45 ?
STRAND 1 25 Oct 06:52:56 06:57:49 46° 71° (ENE) 07:02:44 ?
Hamsat 25 Oct 06:59:19 07:03:30 64° 101° (E) 07:07:41 145.90 MHz
JAS-2 25 Oct 07:41:48 07:49:15 51° 291° (WNW) 07:56:41 435.800 - 435.900 CW/SSB, 435.910 FM
RS-15 25 Oct 07:49:17 08:00:31 78° 58° (ENE) 08:12:15 29.354 - 29.394 USB, Beacon 29.352 USB
Saudisat 1A 25 Oct 07:49:21 07:53:38 58° 118° (ESE) 07:57:59 436.775 MHz
SO-67 25 Oct 07:58:58 08:02:10 34° 98° (E) 08:05:20 435.3500 MHz FM
AO-7 25 Oct 08:08:11 08:12:47 16° 310° (NW) 08:17:24 29.400 - 29.500 MHz
PANSAT 25 Oct 08:22:30 08:24:45 15° 171° (S) 08:27:00 not established
STRAND 1 25 Oct 08:33:34 08:37:12 19° 267° (W) 08:40:52 ?
Hamsat 25 Oct 08:37:57 08:38:54 11° 296° (WNW) 08:39:50 145.90 MHz
Saudisat 1A 25 Oct 09:30:43 09:33:34 17° 316° (NW) 09:36:27 436.775 MHz
SO-67 25 Oct 09:33:25 09:34:47 12° 293° (WNW) 09:36:10 435.3500 MHz FM
MaSat-1 25 Oct 09:37:25 09:39:52 39° 62° (ENE) 09:42:10 437.345 MHz
PANSAT 25 Oct 10:01:44 10:04:15 17° 184° (S) 10:06:46 not established
RS-15 25 Oct 10:03:01 10:11:47 27° 257° (WSW) 10:20:54 29.354 - 29.394 USB, Beacon 29.352 USB
UKube-1 25 Oct 10:11:24 10:14:42 21° 95° (E) 10:17:59 145.840 MHz, 145.915 MHz
HO-68 25 Oct 10:18:21 10:25:33 71° 104° (ESE) 10:32:42 435.675 MHz FM
FUNcube-1 25 Oct 10:51:39 10:54:57 22° 94° (E) 10:58:11 145.950 - 145.970 MHz USB
Oscar 11 25 Oct 10:51:43 10:55:58 57° 100° (E) 11:00:12 145.825 FM, Beacon 2401.500 USB
Oscar 10/S400 25 Oct 11:33:56 11:54:10 22° 153° (SSE) 12:07:31 145.825 - 145.975 CW/USB, Beacon 145.810 USB
ZACube-1 25 Oct 11:42:33 11:46:49 90° 102° (ESE) 11:50:59 437.345 MHz
UKube-1 25 Oct 11:47:02 11:50:55 32° 290° (WNW) 11:54:48 145.840 MHz, 145.915 MHz
PCSat 25 Oct 11:53:42 11:56:06 13° 42° (NE) 11:58:28 145.825 MHz
KITSAT 1 25 Oct 11:54:17 12:01:39 41° 109° (ESE) 12:09:01 435.175 FM
SO-50 25 Oct 11:56:35 11:56:54 10° 106° (ESE) 11:57:12 436.795 FM
HO-68 25 Oct 12:07:18 12:12:34 23° 301° (WNW) 12:17:49 435.675 MHz FM
FUNcube-1 25 Oct 12:27:42 12:31:19 28° 290° (WNW) 12:34:52 145.950 - 145.970 MHz USB
Oscar 11 25 Oct 12:29:51 12:31:39 12° 296° (WNW) 12:33:27 145.825 FM, Beacon 2401.500 USB
ISS 25 Oct 12:55:01 12:58:19 69° 139° (SE) 13:01:38 145.800 FM
